Find HEAD-2E

NORAD ID: 49319 Int'l Des: NNA 2021-091 Owner: HEAD Country: CN operational
LEOCIRCULARRETROGRADE

現在のビュー

3D地球を読み込み中...

HEAD-2Eについて

説明を読み込み中...

次回通過

Passes for default location (London). Set your location on the main map for personalized predictions.

高度履歴

Loading altitude history...

軌道要素

1 49319U 21091E 26151.19066350 .00037731 00000-0 40966-3 0 9993
2 49319 97.3812 11.2786 0005609 30.8691 329.2896 15.63395736258697
Epoch: May 31, 2026 • Age: 11 hours

現在のステータス

高度 388.8 km
速度 7.69 km/s
衛星直下点 79.37°N, 155.93°W
打ち上げ日 Oct 14, 2021
運用期間 4.6 years
タイプ other

技術仕様

分類 Payload
質量 45.00 kg
乾燥質量 45.00 kg
総質量 45.00 kg
長さ 0.50 m
直径 0.20 m
スパン 2.00 m
形状 Box + 2 Pan
製造者 SAST
バスタイプ HEAD-1
フェーズステータス In Orbit
所有者/国 HEAD/CN

Most Searched